Content
SEND FEEDBACK

Daily
Averages
Monthly
Summary
Switzerland

GENEVA, SWITZERLAND


Home > Europe > Switzerland
Elevation: 1364 feet     Latitude: 46 15N     Longitude: 006 08E

WEATHER
 
SELECT A DAY
Number of Records: 306,215;   Date Range: 7/1/96 - 9/16/14
 
SHARE

PRINT THIS DATA

[ ← Previous Day ]
WEATHER ALMANAC - MARCH 5, 2013
[ Next Day → ]
[ °C ]   °F
Weather ElementAverageHighLow
Temperature35.5 °F44.6 °F (5:20 pm)26 °F (3:00 am)
Dewpoint30 °F33.8 °F (3:20 pm)24 °F (3:00 am)
Humidity79.2 %100 % (3:20 am)51 % (5:00 pm)
Barometer29.86 in30.04 in (2:00 am)29.71 in (11:20 pm)
Wind Speed1.4 mph3.5 mph (3:00 am)
Weather ElementAverage
Visibility3 mi
Wind DirectionE (85.3 °)

Weather ElementTotal
Precipitation---
Heating Degree Days29.7 (Base 65)
Averaged from 66 records on March 5, 2013
WEATHER CONDITIONS BREAKOUT
WIND DIRECTION BREAKOUT
WEATHER BY HOUR - MARCH 5, 2013
[ °C ]   °F
Local TimeTemperatureDewpointHumidityBarometerVisibilityWind DirectionWind SpeedGust SpeedPrecipitationEventsConditions
12:20 AM30.2 °F28.4 °F93 %29.95 in3.7 miCalm
12:50 AM28.4 °F26.6 °F93 %29.95 in3.7 miCalm
1:00 AM29.0 °F26.0 °F85 %30.03 in4.0 miNorth (10°)1.2 mphMist
1:20 AM28.4 °F26.6 °F93 %29.95 in3.7 miCalm
1:50 AM28.4 °F26.6 °F93 %29.95 in3.1 miWNW (290°)1.2 mphMist
2:00 AM28.0 °F25.0 °F83 %30.04 inWNW (300°)1.2 mph
2:50 AM28.4 °F26.6 °F93 %29.95 in3.1 miCalmMist
3:00 AM26.0 °F24.0 °F87 %30.03 inNW (310°)3.5 mph
3:20 AM26.6 °F26.6 °F100 %29.92 in2.5 miVariable1.2 mphMist
3:50 AM26.6 °F24.8 °F93 %29.92 in2.5 miCalmMist
4:20 AM26.6 °F26.6 °F100 %29.92 in2.5 miSW (220°)2.3 mphMist
4:50 AM28.4 °F26.6 °F93 %29.92 in2.5 miVariable1.2 mphMist
5:00 AM27.0 °F25.0 °F88 %30.00 inWest (270°)1.2 mph
5:20 AM26.6 °F24.8 °F93 %29.89 in2.5 miVariable1.2 mphMist
5:50 AM26.6 °F24.8 °F93 %29.89 in2.5 miVariable2.3 mphMist
6:00 AM27.0 °F24.0 °F85 %29.99 inWNW (300°)2.3 mph
6:20 AM26.6 °F24.8 °F93 %29.89 in2.5 miVariable1.2 mphMist
6:50 AM26.6 °F26.6 °F100 %29.89 in2.5 miVariable1.2 mphMist
7:00 AM29.0 °F26.0 °F86 %29.98 in2.0 miSouth (170°)1.2 mphMist
7:20 AM28.4 °F26.6 °F93 %29.89 in2.5 miVariable1.2 mphMostly Cloudy
7:50 AM30.2 °F28.4 °F93 %29.89 in2.5 miVariable1.2 mphMostly Cloudy
8:00 AM30.0 °F27.0 °F85 %29.98 inNW (320°)1.2 mph
8:20 AM30.2 °F28.4 °F93 %29.89 in2.5 miCalmMostly Cloudy
8:50 AM32.0 °F30.2 °F93 %29.92 in2.5 miVariable1.2 mphMostly Cloudy
9:00 AM33.0 °F29.0 °F77 %29.97 inNNW (340°)1.2 mph
9:20 AM33.8 °F30.2 °F87 %29.89 in2.5 miVariable1.2 mphMostly Cloudy
9:50 AM35.6 °F30.2 °F81 %29.92 in2.5 miVariable2.3 mphMostly Cloudy
10:20 AM35.6 °F30.2 °F81 %29.92 in2.5 miVariable1.2 mphMostly Cloudy
10:50 AM37.4 °F32.0 °F81 %29.89 in2.5 miVariable2.3 mphMostly Cloudy
11:00 AM38.0 °F31.0 °F68 %29.94 inNNW (340°)1.2 mph
11:20 AM39.2 °F32.0 °F75 %29.89 in2.5 miCalmMostly Cloudy
11:50 AM37.4 °F32.0 °F81 %29.89 in2.5 miVariable2.3 mphOvercast
12:00 PM38.0 °F30.0 °F65 %29.93 inNW (310°)1.2 mph
12:20 PM39.2 °F32.0 °F75 %29.89 in2.5 miVariable1.2 mphOvercast
12:50 PM41.0 °F32.0 °F70 %29.86 in2.5 miVariable2.3 mphHaze
1:00 PM40.0 °F32.0 °F63 %29.91 in2.0 miNorth (10°)2.3 mphHaze
1:20 PM41.0 °F32.0 °F70 %29.86 in2.5 miVariable1.2 mphHaze
1:50 PM42.8 °F32.0 °F66 %29.83 in2.5 miVariable1.2 mphHaze
2:00 PM42.0 °F31.0 °F54 %29.87 inENE (60°)2.3 mph
2:20 PM42.8 °F32.0 °F66 %29.83 in2.8 miVariable2.3 mphHaze
2:50 PM42.8 °F32.0 °F66 %29.83 in2.8 miVariable1.2 mphHaze
3:00 PM43.0 °F33.0 °F56 %29.85 inWSW (250°)3.5 mph
3:20 PM42.8 °F33.8 °F70 %29.80 in2.5 miVariable2.3 mphHaze
3:50 PM42.8 °F33.8 °F70 %29.80 in2.5 miVariable1.2 mphHaze
4:20 PM42.8 °F33.8 °F70 %29.77 in2.5 miVariable1.2 mphHaze
4:50 PM42.8 °F33.8 °F70 %29.77 in3.1 miVariable1.2 mphHaze
5:00 PM44.0 °F32.0 °F51 %29.80 inWest (270°)3.5 mph
5:20 PM44.6 °F33.8 °F66 %29.77 in3.1 miVariable2.3 mphHaze
5:50 PM42.8 °F32.0 °F66 %29.77 in3.1 miWest (260°)3.5 mphHaze
6:00 PM43.0 °F32.0 °F53 %29.79 inSSW (210°)1.2 mph
6:20 PM42.8 °F33.8 °F70 %29.74 in3.1 miVariable1.2 mphHaze
6:50 PM42.8 °F33.8 °F70 %29.74 in3.1 miVariable1.2 mphHaze
7:00 PM43.0 °F32.0 °F54 %29.79 in3.0 miNW (310°)2.3 mphHaze
7:20 PM42.8 °F33.8 °F70 %29.74 in3.1 miVariable1.2 mphHaze
7:50 PM42.8 °F33.8 °F70 %29.74 in2.5 miWSW (240°)3.5 mphHaze
8:00 PM40.0 °F33.0 °F68 %29.79 inWNW (290°)1.2 mph
8:20 PM41.0 °F33.8 °F76 %29.74 in2.5 miCalmScattered Clouds
8:50 PM37.4 °F32.0 °F81 %29.74 in5.0 miCalmPartly Cloudy
9:00 PM37.0 °F31.0 °F73 %29.79 inWNW (300°)1.2 mph
9:20 PM37.4 °F32.0 °F81 %29.74 in5.6 miVariable1.2 mph
9:50 PM35.6 °F32.0 °F87 %29.74 in5.6 miVariable1.2 mph
10:20 PM35.6 °F32.0 °F87 %29.74 in5.0 miVariable1.2 mphPartly Cloudy
10:50 PM35.6 °F32.0 °F87 %29.74 in5.0 miVariable2.3 mphPartly Cloudy
11:00 PM35.0 °F31.0 °F80 %29.79 inWSW (250°)1.2 mph
11:20 PM33.8 °F30.2 °F87 %29.71 in5.0 miCalmPartly Cloudy
11:50 PM33.8 °F30.2 °F87 %29.71 in4.3 miCalmPartly Cloudy
Hourly data recorded from LSGG, located miles away from Geneva, Switzerland







STORIES FROM OUR PARTNERS